Year,Month,Day,Hour,Minute,Value (Times are PST for temperature in C)
2007,07,14,00,00,17.30
2007,07,14,00,01,17.30
2007,07,14,00,02,17.30
2007,07,14,00,03,17.30
2007,07,14,00,04,17.30
2007,07,14,00,05,17.30
2007,07,14,00,06,17.30
2007,07,14,00,07,17.30
2007,07,14,00,08,17.30
2007,07,14,00,09,17.30
2007,07,14,00,10,17.30
2007,07,14,00,11,17.30
2007,07,14,00,12,17.20
2007,07,14,00,13,17.20
2007,07,14,00,14,17.20
2007,07,14,00,15,17.20
2007,07,14,00,16,17.20
2007,07,14,00,17,17.20
2007,07,14,00,18,17.10
2007,07,14,00,19,17.10
2007,07,14,00,20,17.10
2007,07,14,00,21,17.10
2007,07,14,00,22,17.10
2007,07,14,00,23,17.10
2007,07,14,00,24,17.10
2007,07,14,00,25,17.10
2007,07,14,00,26,17.10
2007,07,14,00,27,17.10
2007,07,14,00,28,17.00
2007,07,14,00,29,17.00
2007,07,14,00,30,17.00
2007,07,14,00,31,17.00
2007,07,14,00,32,17.00
2007,07,14,00,33,16.90
2007,07,14,00,34,16.90
2007,07,14,00,35,16.90
2007,07,14,00,36,16.90
2007,07,14,00,37,16.90
2007,07,14,00,38,16.90
2007,07,14,00,39,16.90
2007,07,14,00,40,16.90
2007,07,14,00,41,16.90
2007,07,14,00,42,16.90
2007,07,14,00,43,16.80
2007,07,14,00,44,16.80
2007,07,14,00,45,16.80
2007,07,14,00,46,16.80
2007,07,14,00,47,16.80
2007,07,14,00,48,16.80
2007,07,14,00,49,16.80
2007,07,14,00,50,16.80
2007,07,14,00,51,16.80
2007,07,14,00,52,16.80
2007,07,14,00,53,16.80
2007,07,14,00,54,16.80
2007,07,14,00,55,16.80
2007,07,14,00,56,16.80
2007,07,14,00,57,16.80
2007,07,14,00,58,16.80
2007,07,14,00,59,16.80
2007,07,14,01,00,16.80
2007,07,14,01,01,16.80
2007,07,14,01,02,16.80
2007,07,14,01,03,16.80
2007,07,14,01,04,16.80
2007,07,14,01,05,16.80
2007,07,14,01,06,16.70
2007,07,14,01,07,16.70
2007,07,14,01,08,16.70
2007,07,14,01,09,16.70
2007,07,14,01,10,16.70
2007,07,14,01,11,16.70
2007,07,14,01,12,16.70
2007,07,14,01,13,16.70
2007,07,14,01,14,16.70
2007,07,14,01,15,16.70
2007,07,14,01,16,16.70
2007,07,14,01,17,16.70
2007,07,14,01,18,16.60
2007,07,14,01,19,16.60
2007,07,14,01,20,16.60
2007,07,14,01,21,16.60
2007,07,14,01,22,16.60
2007,07,14,01,23,16.60
2007,07,14,01,24,16.60
2007,07,14,01,25,16.60
2007,07,14,01,26,16.60
2007,07,14,01,27,16.60
2007,07,14,01,28,16.60
2007,07,14,01,29,16.60
2007,07,14,01,30,16.60
2007,07,14,01,31,16.60
2007,07,14,01,32,16.60
2007,07,14,01,33,16.60
2007,07,14,01,34,16.60
2007,07,14,01,35,16.60
2007,07,14,01,36,16.60
2007,07,14,01,37,16.60
2007,07,14,01,38,16.60
2007,07,14,01,39,16.60
2007,07,14,01,40,16.60
2007,07,14,01,41,16.60
2007,07,14,01,42,16.60
2007,07,14,01,43,16.60
2007,07,14,01,44,16.60
2007,07,14,01,45,16.60
2007,07,14,01,46,16.60
2007,07,14,01,47,16.60
2007,07,14,01,48,16.60
2007,07,14,01,49,16.60
2007,07,14,01,50,16.60
2007,07,14,01,51,16.60
2007,07,14,01,52,16.60
2007,07,14,01,53,16.60
2007,07,14,01,54,16.60
2007,07,14,01,55,16.60
2007,07,14,01,56,16.60
2007,07,14,01,57,16.60
2007,07,14,01,58,16.60
2007,07,14,01,59,16.60
2007,07,14,02,00,16.60
2007,07,14,02,01,16.60
2007,07,14,02,02,16.60
2007,07,14,02,03,16.60
2007,07,14,02,04,16.60
2007,07,14,02,05,16.60
2007,07,14,02,06,16.60
2007,07,14,02,07,16.60
2007,07,14,02,08,16.60
2007,07,14,02,09,16.60
2007,07,14,02,10,16.60
2007,07,14,02,11,16.60
2007,07,14,02,12,16.60
2007,07,14,02,13,16.60
2007,07,14,02,14,16.60
2007,07,14,02,15,16.60
2007,07,14,02,16,16.60
2007,07,14,02,17,16.60
2007,07,14,02,18,16.60
2007,07,14,02,19,16.60
2007,07,14,02,20,16.60
2007,07,14,02,21,16.60
2007,07,14,02,22,16.60
2007,07,14,02,23,16.60
2007,07,14,02,24,16.60
2007,07,14,02,25,16.60
2007,07,14,02,26,16.60
2007,07,14,02,27,16.60
2007,07,14,02,28,16.60
2007,07,14,02,29,16.60
2007,07,14,02,30,16.60
2007,07,14,02,31,16.60
2007,07,14,02,32,16.60
2007,07,14,02,33,16.60
2007,07,14,02,34,16.60
2007,07,14,02,35,16.60
2007,07,14,02,36,16.60
2007,07,14,02,37,16.60
2007,07,14,02,38,16.60
2007,07,14,02,39,16.60
2007,07,14,02,40,16.60
2007,07,14,02,41,16.60
2007,07,14,02,42,16.60
2007,07,14,02,43,16.60
2007,07,14,02,44,16.60
2007,07,14,02,45,16.60
2007,07,14,02,46,16.60
2007,07,14,02,47,16.60
2007,07,14,02,48,16.60
2007,07,14,02,49,16.60
2007,07,14,02,50,16.60
2007,07,14,02,51,16.60
2007,07,14,02,52,16.60
2007,07,14,02,53,16.60
2007,07,14,02,54,16.60
2007,07,14,02,55,16.60
2007,07,14,02,56,16.60
2007,07,14,02,57,16.60
2007,07,14,02,58,16.60
2007,07,14,02,59,16.60
2007,07,14,03,00,16.60
2007,07,14,03,01,16.60
2007,07,14,03,02,16.60
2007,07,14,03,03,16.60
2007,07,14,03,04,16.60
2007,07,14,03,05,16.60
2007,07,14,03,06,16.60
2007,07,14,03,07,16.60
2007,07,14,03,08,16.60
2007,07,14,03,09,16.70
2007,07,14,03,10,16.70
2007,07,14,03,11,16.60
2007,07,14,03,12,16.60
2007,07,14,03,13,16.60
2007,07,14,03,14,16.70
2007,07,14,03,15,16.70
2007,07,14,03,16,16.70
2007,07,14,03,17,16.70
2007,07,14,03,18,16.70
2007,07,14,03,19,16.70
2007,07,14,03,20,16.70
2007,07,14,03,21,16.70
2007,07,14,03,22,16.70
2007,07,14,03,23,16.70
2007,07,14,03,24,16.70
2007,07,14,03,25,16.70
2007,07,14,03,26,16.70
2007,07,14,03,27,16.70
2007,07,14,03,28,16.60
2007,07,14,03,29,16.60
2007,07,14,03,30,16.60
2007,07,14,03,31,16.60
2007,07,14,03,32,16.60
2007,07,14,03,33,16.60
2007,07,14,03,34,16.60
2007,07,14,03,35,16.60
2007,07,14,03,36,16.60
2007,07,14,03,37,16.60
2007,07,14,03,38,16.60
2007,07,14,03,39,16.60
2007,07,14,03,40,16.60
2007,07,14,03,41,16.60
2007,07,14,03,42,16.60
2007,07,14,03,43,16.60
2007,07,14,03,44,16.60
2007,07,14,03,45,16.60
2007,07,14,03,46,16.60
2007,07,14,03,47,16.60
2007,07,14,03,48,16.60
2007,07,14,03,49,16.60
2007,07,14,03,50,16.60
2007,07,14,03,51,16.60
2007,07,14,03,52,16.60
2007,07,14,03,53,16.60
2007,07,14,03,54,16.60
2007,07,14,03,55,16.60
2007,07,14,03,56,16.60
2007,07,14,03,57,16.60
2007,07,14,03,58,16.60
2007,07,14,03,59,16.50
2007,07,14,04,00,16.50
2007,07,14,04,01,16.50
2007,07,14,04,02,16.50
2007,07,14,04,03,16.50
2007,07,14,04,04,16.50
2007,07,14,04,05,16.50
2007,07,14,04,06,16.50
2007,07,14,04,07,16.50
2007,07,14,04,08,16.50
2007,07,14,04,09,16.50
2007,07,14,04,10,16.50
2007,07,14,04,11,16.50
2007,07,14,04,12,16.60
2007,07,14,04,13,16.60
2007,07,14,04,14,16.60
2007,07,14,04,15,16.60
2007,07,14,04,16,16.60
2007,07,14,04,17,16.60
2007,07,14,04,18,16.60
2007,07,14,04,19,16.60
2007,07,14,04,20,16.60
2007,07,14,04,21,16.60
2007,07,14,04,22,16.60
2007,07,14,04,23,16.60
2007,07,14,04,24,16.60
2007,07,14,04,25,16.60
2007,07,14,04,26,16.60
2007,07,14,04,27,16.50
2007,07,14,04,28,16.50
2007,07,14,04,29,16.50
2007,07,14,04,30,16.50
2007,07,14,04,31,16.40
2007,07,14,04,32,16.40
2007,07,14,04,33,16.40
2007,07,14,04,34,16.40
2007,07,14,04,35,16.40
2007,07,14,04,36,16.40
2007,07,14,04,37,16.40
2007,07,14,04,38,16.40
2007,07,14,04,39,16.40
2007,07,14,04,40,16.40
2007,07,14,04,41,16.30
2007,07,14,04,42,16.30
2007,07,14,04,43,16.30
2007,07,14,04,44,16.30
2007,07,14,04,45,16.30
2007,07,14,04,46,16.20
2007,07,14,04,47,16.20
2007,07,14,04,48,16.20
2007,07,14,04,49,16.20
2007,07,14,04,50,16.20
2007,07,14,04,51,16.10
2007,07,14,04,52,16.10
2007,07,14,04,53,16.10
2007,07,14,04,54,16.10
2007,07,14,04,55,16.10
2007,07,14,04,56,16.00
2007,07,14,04,57,16.00
2007,07,14,04,58,16.00
2007,07,14,04,59,16.00
2007,07,14,05,00,15.90
2007,07,14,05,01,15.90
2007,07,14,05,02,15.90
2007,07,14,05,03,15.90
2007,07,14,05,04,15.80
2007,07,14,05,05,15.80
2007,07,14,05,06,15.80
2007,07,14,05,07,15.80
2007,07,14,05,08,15.80
2007,07,14,05,09,15.70
2007,07,14,05,10,15.70
2007,07,14,05,11,15.70
2007,07,14,05,12,15.70
2007,07,14,05,13,15.70
2007,07,14,05,14,15.60
2007,07,14,05,15,15.60
2007,07,14,05,16,15.60
2007,07,14,05,17,15.60
2007,07,14,05,18,15.60
2007,07,14,05,19,15.50
2007,07,14,05,20,15.50
2007,07,14,05,21,15.50
2007,07,14,05,22,15.40
2007,07,14,05,23,15.40
2007,07,14,05,24,15.40
2007,07,14,05,25,15.40
2007,07,14,05,26,15.40
2007,07,14,05,27,15.40
2007,07,14,05,28,15.30
2007,07,14,05,29,15.30
2007,07,14,05,30,15.30
2007,07,14,05,31,15.30
2007,07,14,05,32,15.30
2007,07,14,05,33,15.30
2007,07,14,05,34,15.20
2007,07,14,05,35,15.20
2007,07,14,05,36,15.20
2007,07,14,05,37,15.20
2007,07,14,05,38,15.20
2007,07,14,05,39,15.20
2007,07,14,05,40,15.20
2007,07,14,05,41,15.10
2007,07,14,05,42,15.10
2007,07,14,05,43,15.10
2007,07,14,05,44,15.10
2007,07,14,05,45,15.10
2007,07,14,05,46,15.00
2007,07,14,05,47,15.00
2007,07,14,05,48,15.00
2007,07,14,05,49,15.00
2007,07,14,05,50,15.00
2007,07,14,05,51,15.00
2007,07,14,05,52,15.00
2007,07,14,05,53,15.00
2007,07,14,05,54,15.00
2007,07,14,05,55,15.00
2007,07,14,05,56,15.00
2007,07,14,05,57,15.00
2007,07,14,05,58,15.00
2007,07,14,05,59,15.00
2007,07,14,06,00,15.00
2007,07,14,06,01,15.00
2007,07,14,06,02,15.00
2007,07,14,06,03,15.00
2007,07,14,06,04,15.00
2007,07,14,06,05,15.00
2007,07,14,06,06,15.00
2007,07,14,06,07,15.00
2007,07,14,06,08,15.00
2007,07,14,06,09,15.00
2007,07,14,06,10,15.00
2007,07,14,06,11,15.00
2007,07,14,06,12,15.00
2007,07,14,06,13,15.00
2007,07,14,06,14,15.00
2007,07,14,06,15,15.00
2007,07,14,06,16,15.00
2007,07,14,06,17,15.00
2007,07,14,06,18,15.00
2007,07,14,06,19,15.10
2007,07,14,06,20,15.10
2007,07,14,06,21,15.20
2007,07,14,06,22,15.20
2007,07,14,06,23,15.30
2007,07,14,06,24,15.30
2007,07,14,06,25,15.30
2007,07,14,06,26,15.30
2007,07,14,06,27,15.40
2007,07,14,06,28,15.40
2007,07,14,06,29,15.50
2007,07,14,06,30,15.50
2007,07,14,06,31,15.60
2007,07,14,06,32,15.70
2007,07,14,06,33,15.70
2007,07,14,06,34,15.80
2007,07,14,06,35,15.90
2007,07,14,06,36,15.90
2007,07,14,06,37,15.90
2007,07,14,06,38,16.00
2007,07,14,06,39,16.00
2007,07,14,06,40,16.10
2007,07,14,06,41,16.10
2007,07,14,06,42,16.10
2007,07,14,06,43,16.20
2007,07,14,06,44,16.20
2007,07,14,06,45,16.20
2007,07,14,06,46,16.30
2007,07,14,06,47,16.30
2007,07,14,06,48,16.40
2007,07,14,06,49,16.40
2007,07,14,06,50,16.50
2007,07,14,06,51,16.50
2007,07,14,06,52,16.60
2007,07,14,06,53,16.60
2007,07,14,06,54,16.70
2007,07,14,06,55,16.70
2007,07,14,06,56,16.80
2007,07,14,06,57,16.80
2007,07,14,06,58,16.90
2007,07,14,06,59,17.00
2007,07,14,07,00,17.10
2007,07,14,07,01,17.10
2007,07,14,07,02,17.20
2007,07,14,07,03,17.20
2007,07,14,07,04,17.30
2007,07,14,07,05,17.30
2007,07,14,07,06,17.40
2007,07,14,07,07,17.50
2007,07,14,07,08,17.60
2007,07,14,07,09,17.60
2007,07,14,07,10,17.70
2007,07,14,07,11,17.70
2007,07,14,07,12,17.80
2007,07,14,07,13,17.80
2007,07,14,07,14,17.80
2007,07,14,07,15,17.80
2007,07,14,07,16,17.80
2007,07,14,07,17,17.80
2007,07,14,07,18,17.80
2007,07,14,07,19,17.80
2007,07,14,07,20,17.80
2007,07,14,07,21,17.90
2007,07,14,07,22,17.90
2007,07,14,07,23,18.00
2007,07,14,07,24,18.10
2007,07,14,07,25,18.20
2007,07,14,07,26,18.20
2007,07,14,07,27,18.30
2007,07,14,07,28,18.40
2007,07,14,07,29,18.40
2007,07,14,07,30,18.50
2007,07,14,07,31,18.50
2007,07,14,07,32,18.60
2007,07,14,07,33,18.70
2007,07,14,07,34,18.70
2007,07,14,07,35,18.80
2007,07,14,07,36,18.80
2007,07,14,07,37,18.90
2007,07,14,07,38,18.90
2007,07,14,07,39,18.90
2007,07,14,07,40,18.90
2007,07,14,07,41,18.90
2007,07,14,07,42,18.90
2007,07,14,07,43,18.90
2007,07,14,07,44,19.00
2007,07,14,07,45,19.00
2007,07,14,07,46,19.10
2007,07,14,07,47,19.10
2007,07,14,07,48,19.10
2007,07,14,07,49,19.10
2007,07,14,07,50,19.20
2007,07,14,07,51,19.20
2007,07,14,07,52,19.20
2007,07,14,07,53,19.30
2007,07,14,07,54,19.30
2007,07,14,07,55,19.30
2007,07,14,07,56,19.30
2007,07,14,07,57,19.40
2007,07,14,07,58,19.50
2007,07,14,07,59,19.50
2007,07,14,08,00,19.60
2007,07,14,08,01,19.70
2007,07,14,08,02,19.80
2007,07,14,08,03,19.90
2007,07,14,08,04,20.00
2007,07,14,08,05,20.10
2007,07,14,08,06,20.20
2007,07,14,08,07,20.30
2007,07,14,08,08,20.40
2007,07,14,08,09,20.50
2007,07,14,08,10,20.60
2007,07,14,08,11,20.60
2007,07,14,08,12,20.70
2007,07,14,08,13,20.80
2007,07,14,08,14,20.80
2007,07,14,08,15,20.90
2007,07,14,08,16,20.90
2007,07,14,08,17,20.90
2007,07,14,08,18,20.90
2007,07,14,08,19,20.80
2007,07,14,08,20,20.80
2007,07,14,08,21,20.80
2007,07,14,08,22,20.70
2007,07,14,08,23,20.70
2007,07,14,08,24,20.70
2007,07,14,08,25,20.60
2007,07,14,08,26,20.60
2007,07,14,08,27,20.60
2007,07,14,08,28,20.60
2007,07,14,08,29,20.60
2007,07,14,08,30,20.60
2007,07,14,08,31,20.60
2007,07,14,08,32,20.50
2007,07,14,08,33,20.50
2007,07,14,08,34,20.40
2007,07,14,08,35,20.40
2007,07,14,08,36,20.40
2007,07,14,08,37,20.40
2007,07,14,08,38,20.40
2007,07,14,08,39,20.40
2007,07,14,08,40,20.40
2007,07,14,08,41,20.40
2007,07,14,08,42,20.40
2007,07,14,08,43,20.40
2007,07,14,08,44,20.40
2007,07,14,08,45,20.40
2007,07,14,08,46,20.40
2007,07,14,08,47,20.40
2007,07,14,08,48,20.50
2007,07,14,08,49,20.50
2007,07,14,08,50,20.60
2007,07,14,08,51,20.60
2007,07,14,08,52,20.60
2007,07,14,08,53,20.60
2007,07,14,08,54,20.60
2007,07,14,08,55,20.50
2007,07,14,08,56,20.40
2007,07,14,08,57,20.40
2007,07,14,08,58,20.30
2007,07,14,08,59,20.30
2007,07,14,09,00,20.30
2007,07,14,09,01,20.30
2007,07,14,09,02,20.30
2007,07,14,09,03,20.30
2007,07,14,09,04,20.20
2007,07,14,09,05,20.20
2007,07,14,09,06,20.20
2007,07,14,09,07,20.00
2007,07,14,09,08,19.90
2007,07,14,09,09,19.90
2007,07,14,09,10,19.90
2007,07,14,09,11,19.90
2007,07,14,09,12,19.90
2007,07,14,09,13,19.90
2007,07,14,09,14,19.80
2007,07,14,09,15,19.80
2007,07,14,09,16,19.80
2007,07,14,09,17,19.80
2007,07,14,09,18,19.80
2007,07,14,09,19,19.80
2007,07,14,09,20,19.70
2007,07,14,09,21,19.70
2007,07,14,09,22,19.70
2007,07,14,09,23,19.70
2007,07,14,09,24,19.80
2007,07,14,09,25,19.80
2007,07,14,09,26,19.90
2007,07,14,09,27,19.90
2007,07,14,09,28,20.10
2007,07,14,09,29,20.20
2007,07,14,09,30,20.30
2007,07,14,09,31,20.40
2007,07,14,09,32,20.40
2007,07,14,09,33,20.40
2007,07,14,09,34,20.40
2007,07,14,09,35,20.40
2007,07,14,09,36,20.30
2007,07,14,09,37,20.30
2007,07,14,09,38,20.30
2007,07,14,09,39,20.20
2007,07,14,09,40,20.20
2007,07,14,09,41,20.20
2007,07,14,09,42,20.30
2007,07,14,09,43,20.30
2007,07,14,09,44,20.40
2007,07,14,09,45,20.40
2007,07,14,09,46,20.50
2007,07,14,09,47,20.50
2007,07,14,09,48,20.40
2007,07,14,09,49,20.40
2007,07,14,09,50,20.40
2007,07,14,09,51,20.40
2007,07,14,09,52,20.50
2007,07,14,09,53,20.60
2007,07,14,09,54,20.70
2007,07,14,09,55,20.60
2007,07,14,09,56,20.70
2007,07,14,09,57,20.70
2007,07,14,09,58,20.70
2007,07,14,09,59,20.70
2007,07,14,10,00,20.70
2007,07,14,10,01,20.70
2007,07,14,10,02,20.70
2007,07,14,10,03,20.70
2007,07,14,10,04,20.80
2007,07,14,10,05,20.80
2007,07,14,10,06,20.70
2007,07,14,10,07,20.70
2007,07,14,10,08,20.70
2007,07,14,10,09,20.70
2007,07,14,10,10,20.70
2007,07,14,10,11,20.80
2007,07,14,10,12,20.80
2007,07,14,10,13,20.80
2007,07,14,10,14,20.90
2007,07,14,10,15,20.90
2007,07,14,10,16,20.90
2007,07,14,10,17,20.90
2007,07,14,10,18,20.90
2007,07,14,10,19,20.90
2007,07,14,10,20,20.90
2007,07,14,10,21,21.00
2007,07,14,10,22,21.10
2007,07,14,10,23,21.10
2007,07,14,10,24,21.10
2007,07,14,10,25,21.10
2007,07,14,10,26,21.00
2007,07,14,10,27,20.90
2007,07,14,10,28,20.90
2007,07,14,10,29,20.80
2007,07,14,10,30,20.80
2007,07,14,10,31,20.70
2007,07,14,10,32,20.70
2007,07,14,10,33,20.80
2007,07,14,10,34,20.90
2007,07,14,10,35,21.00
2007,07,14,10,36,21.00
2007,07,14,10,37,21.00
2007,07,14,10,38,21.10
2007,07,14,10,39,21.10
2007,07,14,10,40,21.20
2007,07,14,10,41,21.20
2007,07,14,10,42,21.20
2007,07,14,10,43,21.30
2007,07,14,10,44,21.30
2007,07,14,10,45,21.30
2007,07,14,10,46,21.30
2007,07,14,10,47,21.30
2007,07,14,10,48,21.30
2007,07,14,10,49,21.40
2007,07,14,10,50,21.40
2007,07,14,10,51,21.50
2007,07,14,10,52,21.50
2007,07,14,10,53,21.60
2007,07,14,10,54,21.60
2007,07,14,10,55,21.60
2007,07,14,10,56,21.70
2007,07,14,10,57,21.70
2007,07,14,10,58,21.70
2007,07,14,10,59,21.70
2007,07,14,11,00,21.80
2007,07,14,11,01,21.80
2007,07,14,11,02,21.80
2007,07,14,11,03,21.80
2007,07,14,11,04,21.80
2007,07,14,11,05,21.80
2007,07,14,11,06,21.80
2007,07,14,11,07,21.80
2007,07,14,11,08,21.80
2007,07,14,11,09,21.80
2007,07,14,11,10,21.80
2007,07,14,11,11,21.70
2007,07,14,11,12,21.70
2007,07,14,11,13,21.70
2007,07,14,11,14,21.70
2007,07,14,11,15,21.70
2007,07,14,11,16,21.70
2007,07,14,11,17,21.60
2007,07,14,11,18,21.50
2007,07,14,11,19,21.40
2007,07,14,11,20,21.30
2007,07,14,11,21,21.30
2007,07,14,11,22,21.30
2007,07,14,11,23,21.30
2007,07,14,11,24,21.30
2007,07,14,11,25,21.30
2007,07,14,11,26,21.30
2007,07,14,11,27,21.30
2007,07,14,11,28,21.30
2007,07,14,11,29,21.20
2007,07,14,11,30,21.20
2007,07,14,11,31,21.30
2007,07,14,11,32,21.30
2007,07,14,11,33,21.30
2007,07,14,11,34,21.30
2007,07,14,11,35,21.30
2007,07,14,11,36,21.30
2007,07,14,11,37,21.30
2007,07,14,11,38,21.30
2007,07,14,11,39,21.30
2007,07,14,11,40,21.30
2007,07,14,11,41,21.40
2007,07,14,11,42,21.40
2007,07,14,11,43,21.40
2007,07,14,11,44,21.40
2007,07,14,11,45,21.30
2007,07,14,11,46,21.30
2007,07,14,11,47,21.30
2007,07,14,11,48,21.20
2007,07,14,11,49,21.20
2007,07,14,11,50,21.20
2007,07,14,11,51,21.30
2007,07,14,11,52,21.20
2007,07,14,11,53,21.30
2007,07,14,11,54,21.30
2007,07,14,11,55,21.40
2007,07,14,11,56,21.40
2007,07,14,11,57,21.40
2007,07,14,11,58,21.40
2007,07,14,11,59,21.40
2007,07,14,12,00,21.40
2007,07,14,12,01,21.50
2007,07,14,12,02,21.60
2007,07,14,12,03,21.60
2007,07,14,12,04,21.70
2007,07,14,12,05,21.70
2007,07,14,12,06,21.70
2007,07,14,12,07,21.60
2007,07,14,12,08,21.60
2007,07,14,12,09,21.60
2007,07,14,12,10,21.70
2007,07,14,12,11,21.80
2007,07,14,12,12,21.80
2007,07,14,12,13,21.80
2007,07,14,12,14,21.80
2007,07,14,12,15,21.80
2007,07,14,12,16,21.80
2007,07,14,12,17,21.80
2007,07,14,12,18,21.90
2007,07,14,12,19,21.90
2007,07,14,12,20,22.00
2007,07,14,12,21,22.00
2007,07,14,12,22,22.00
2007,07,14,12,23,21.90
2007,07,14,12,24,21.80
2007,07,14,12,25,21.70
2007,07,14,12,26,21.60
2007,07,14,12,27,21.70
2007,07,14,12,28,21.90
2007,07,14,12,29,22.10
2007,07,14,12,30,22.30
2007,07,14,12,31,22.30
2007,07,14,12,32,22.30
2007,07,14,12,33,22.30
2007,07,14,12,34,22.30
2007,07,14,12,35,22.40
2007,07,14,12,36,22.60
2007,07,14,12,37,22.60
2007,07,14,12,38,22.70
2007,07,14,12,39,22.70
2007,07,14,12,40,22.70
2007,07,14,12,41,22.70
2007,07,14,12,42,22.70
2007,07,14,12,43,22.70
2007,07,14,12,44,22.70
2007,07,14,12,45,22.70
2007,07,14,12,46,22.80
2007,07,14,12,47,23.00
2007,07,14,12,48,23.20
2007,07,14,12,49,23.30
2007,07,14,12,50,23.40
2007,07,14,12,51,23.40
2007,07,14,12,52,23.40
2007,07,14,12,53,23.40
2007,07,14,12,54,23.40
2007,07,14,12,55,23.40
2007,07,14,12,56,23.40
2007,07,14,12,57,23.30
2007,07,14,12,58,23.40
2007,07,14,12,59,23.40
2007,07,14,13,00,23.40
2007,07,14,13,01,23.40
2007,07,14,13,02,23.50
2007,07,14,13,03,23.60
2007,07,14,13,04,23.60
2007,07,14,13,05,23.50
2007,07,14,13,06,23.50
2007,07,14,13,07,23.50
2007,07,14,13,08,23.60
2007,07,14,13,09,23.50
2007,07,14,13,10,23.40
2007,07,14,13,11,23.30
2007,07,14,13,12,23.40
2007,07,14,13,13,23.50
2007,07,14,13,14,23.60
2007,07,14,13,15,23.60
2007,07,14,13,16,23.60
2007,07,14,13,17,23.60
2007,07,14,13,18,23.70
2007,07,14,13,19,23.60
2007,07,14,13,20,23.60
2007,07,14,13,21,23.60
2007,07,14,13,22,23.40
2007,07,14,13,23,23.30
2007,07,14,13,24,23.20
2007,07,14,13,25,23.20
2007,07,14,13,26,23.30
2007,07,14,13,27,23.30
2007,07,14,13,28,23.40
2007,07,14,13,29,23.40
2007,07,14,13,30,23.40
2007,07,14,13,31,23.30
2007,07,14,13,32,23.30
2007,07,14,13,33,23.20
2007,07,14,13,34,23.20
2007,07,14,13,35,23.30
2007,07,14,13,36,23.30
2007,07,14,13,37,23.30
2007,07,14,13,38,23.30
2007,07,14,13,39,23.30
2007,07,14,13,40,23.20
2007,07,14,13,41,23.10
2007,07,14,13,42,23.10
2007,07,14,13,43,23.10
2007,07,14,13,44,23.10
2007,07,14,13,45,23.10
2007,07,14,13,46,23.20
2007,07,14,13,47,23.20
2007,07,14,13,48,23.20
2007,07,14,13,49,23.20
2007,07,14,13,50,23.20
2007,07,14,13,51,23.20
2007,07,14,13,52,23.20
2007,07,14,13,53,23.30
2007,07,14,13,54,23.30
2007,07,14,13,55,23.30
2007,07,14,13,56,23.40
2007,07,14,13,57,23.40
2007,07,14,13,58,23.60
2007,07,14,13,59,23.60
2007,07,14,14,00,23.60
2007,07,14,14,01,23.50
2007,07,14,14,02,23.50
2007,07,14,14,03,23.50
2007,07,14,14,04,23.50
2007,07,14,14,05,23.50
2007,07,14,14,06,23.40
2007,07,14,14,07,23.30
2007,07,14,14,08,23.30
2007,07,14,14,09,23.20
2007,07,14,14,10,23.10
2007,07,14,14,11,23.10
2007,07,14,14,12,23.20
2007,07,14,14,13,23.20
2007,07,14,14,14,23.20
2007,07,14,14,15,23.20
2007,07,14,14,16,23.20
2007,07,14,14,17,23.30
2007,07,14,14,18,23.30
2007,07,14,14,19,23.20
2007,07,14,14,20,23.10
2007,07,14,14,21,23.10
2007,07,14,14,22,23.20
2007,07,14,14,23,23.30
2007,07,14,14,24,23.40
2007,07,14,14,25,23.50
2007,07,14,14,26,23.60
2007,07,14,14,27,23.70
2007,07,14,14,28,23.50
2007,07,14,14,29,23.40
2007,07,14,14,30,23.40
2007,07,14,14,31,23.30
2007,07,14,14,32,23.30
2007,07,14,14,33,23.30
2007,07,14,14,34,23.30
2007,07,14,14,35,23.30
2007,07,14,14,36,23.40
2007,07,14,14,37,23.30
2007,07,14,14,38,23.30
2007,07,14,14,39,23.30
2007,07,14,14,40,23.30
2007,07,14,14,41,23.20
2007,07,14,14,42,23.00
2007,07,14,14,43,22.90
2007,07,14,14,44,22.80
2007,07,14,14,45,22.90
2007,07,14,14,46,22.90
2007,07,14,14,47,22.90
2007,07,14,14,48,22.90
2007,07,14,14,49,23.00
2007,07,14,14,50,23.00
2007,07,14,14,51,23.10
2007,07,14,14,52,23.20
2007,07,14,14,53,23.20
2007,07,14,14,54,23.30
2007,07,14,14,55,23.30
2007,07,14,14,56,23.30
2007,07,14,14,57,23.30
2007,07,14,14,58,23.40
2007,07,14,14,59,23.40
2007,07,14,15,00,23.40
2007,07,14,15,01,23.50
2007,07,14,15,02,23.60
2007,07,14,15,03,23.60
2007,07,14,15,04,23.70
2007,07,14,15,05,23.70
2007,07,14,15,06,23.80
2007,07,14,15,07,23.80
2007,07,14,15,08,23.80
2007,07,14,15,09,23.80
2007,07,14,15,10,23.80
2007,07,14,15,11,23.80
2007,07,14,15,12,23.70
2007,07,14,15,13,23.70
2007,07,14,15,14,23.60
2007,07,14,15,15,23.60
2007,07,14,15,16,23.60
2007,07,14,15,17,23.70
2007,07,14,15,18,23.80
2007,07,14,15,19,23.90
2007,07,14,15,20,23.90
2007,07,14,15,21,23.80
2007,07,14,15,22,23.90
2007,07,14,15,23,24.00
2007,07,14,15,24,24.10
2007,07,14,15,25,24.20
2007,07,14,15,26,24.20
2007,07,14,15,27,24.10
2007,07,14,15,28,24.00
2007,07,14,15,29,23.90
2007,07,14,15,30,23.90
2007,07,14,15,31,23.90
2007,07,14,15,32,23.90
2007,07,14,15,33,23.90
2007,07,14,15,34,24.00
2007,07,14,15,35,24.10
2007,07,14,15,36,24.10
2007,07,14,15,37,24.20
2007,07,14,15,38,24.30
2007,07,14,15,39,24.40
2007,07,14,15,40,24.40
2007,07,14,15,41,24.50
2007,07,14,15,42,24.50
2007,07,14,15,43,24.50
2007,07,14,15,44,24.60
2007,07,14,15,45,24.60
2007,07,14,15,46,24.70
2007,07,14,15,47,24.80
2007,07,14,15,48,24.90
2007,07,14,15,49,24.90
2007,07,14,15,50,25.00
2007,07,14,15,51,25.00
2007,07,14,15,52,25.00
2007,07,14,15,53,25.10
2007,07,14,15,54,25.20
2007,07,14,15,55,25.20
2007,07,14,15,56,25.20
2007,07,14,15,57,25.20
2007,07,14,15,58,25.10
2007,07,14,15,59,25.10
2007,07,14,16,00,25.00
2007,07,14,16,01,25.00
2007,07,14,16,02,24.90
2007,07,14,16,03,24.90
2007,07,14,16,04,24.90
2007,07,14,16,05,24.90
2007,07,14,16,06,24.90
2007,07,14,16,07,24.90
2007,07,14,16,08,24.90
2007,07,14,16,09,24.90
2007,07,14,16,10,24.90
2007,07,14,16,11,24.90
2007,07,14,16,12,24.90
2007,07,14,16,13,24.80
2007,07,14,16,14,24.80
2007,07,14,16,15,24.70
2007,07,14,16,16,24.60
2007,07,14,16,17,24.50
2007,07,14,16,18,24.40
2007,07,14,16,19,24.30
2007,07,14,16,20,24.30
2007,07,14,16,21,24.30
2007,07,14,16,22,24.20
2007,07,14,16,23,24.20
2007,07,14,16,24,24.20
2007,07,14,16,25,24.10
2007,07,14,16,26,24.10
2007,07,14,16,27,24.10
2007,07,14,16,28,24.00
2007,07,14,16,29,24.00
2007,07,14,16,30,24.00
2007,07,14,16,31,24.00
2007,07,14,16,32,23.90
2007,07,14,16,33,23.90
2007,07,14,16,34,23.90
2007,07,14,16,35,23.80
2007,07,14,16,36,23.80
2007,07,14,16,37,23.80
2007,07,14,16,38,23.80
2007,07,14,16,39,23.80
2007,07,14,16,40,23.70
2007,07,14,16,41,23.70
2007,07,14,16,42,23.70
2007,07,14,16,43,23.70
2007,07,14,16,44,23.60
2007,07,14,16,45,23.70
2007,07,14,16,46,23.70
2007,07,14,16,47,23.70
2007,07,14,16,48,23.80
2007,07,14,16,49,23.80
2007,07,14,16,50,23.70
2007,07,14,16,51,23.70
2007,07,14,16,52,23.70
2007,07,14,16,53,23.70
2007,07,14,16,54,23.70
2007,07,14,16,55,23.70
2007,07,14,16,56,23.70
2007,07,14,16,57,23.70
2007,07,14,16,58,23.60
2007,07,14,16,59,23.50
2007,07,14,17,00,23.50
2007,07,14,17,01,23.40
2007,07,14,17,02,23.40
2007,07,14,17,03,23.30
2007,07,14,17,04,23.30
2007,07,14,17,05,23.30
2007,07,14,17,06,23.30
2007,07,14,17,07,23.30
2007,07,14,17,08,23.30
2007,07,14,17,09,23.30
2007,07,14,17,10,23.40
2007,07,14,17,11,23.40
2007,07,14,17,12,23.40
2007,07,14,17,13,23.40
2007,07,14,17,14,23.40
2007,07,14,17,15,23.40
2007,07,14,17,16,23.40
2007,07,14,17,17,23.40
2007,07,14,17,18,23.50
2007,07,14,17,19,23.50